User: anonymous
Location: Unspecified
(0.0000°N, 0.0000°E)
Time: 17:58:10
(UTC+00:00)
Language:

STSS DEMO 2 (USA 209) - Orbit

View from above orbital plane
View from above orbital plane
View from above satellite
View from above satellite

Ground track
Ground track

The orbit data is extracted from the following two-line orbital elements,

1 35938U 09052B   14269.85867832 0.00000000  00000-0  00000-0 0    06
2 35938  57.9846 191.9656 0012652  29.3360 330.6640 12.79134281    05
Epoch (UTC): 26 September 2014 20:36:29
Eccentricity: 0.0012652
inclination: 57.9846°
perigee height: 1335 km
apogee height: 1355 km
right ascension of ascending node: 191.9656°
argument of perigee: 29.3360°
revolutions per day: 12.79134281
mean anomaly at epoch: 330.6640°
orbit number at epoch: 0

The dashed part of the orbit path shows where the satellite is in the earth's shadow,  

DLR